Wind_Speed
8 8 8 8 8 8 8 9 9 8 8 8 8 8 8 9 9 9 9 9 9 9 10 9 9 9 8 8 8 7 7 6 6 6 7 7 8 8 8 9 9 10 10
8 8 8 9 9 9 9 9 8 8 7 7 7 7 8 8 8 9 9 9 9 9 9 9 9 8 7 7 6 6 6 5 5 5 5 6 6 7 8 9 9 10 10
8 9 9 9 9 9 9 9 8 8 7 7 7 7 7 8 8 8 9 10 10 10 9 9 9 8 8 7 6 5 5 4 4 4 4 4 5 6 7 8 8 9 9
9 9 9 10 9 9 9 9 9 8 7 7 7 8 8 8 8 9 9 10 11 10 10 9 9 9 8 8 7 5 4 3 3 2 2 3 4 5 6 7 7 8 8
10 10 9 9 10 10 9 10 9 9 8 8 8 8 9 9 10 10 10 11 11 11 11 11 10 10 9 9 8 7 5 4 3 2 1 1 2 4 5 6 7 7 8
11 10 10 10 10 11 11 10 10 10 10 9 9 10 10 10 10 11 11 11 12 12 12 12 12 12 11 10 9 8 7 6 5 4 2 2 2 3 4 5 6 7 7
12 11 11 11 11 11 12 11 11 11 11 11 10 10 11 11 11 12 12 13 12 12 13 13 13 13 12 11 11 10 9 8 7 6 5 4 4 4 4 5 6 6 7
13 13 12 12 12 12 12 12 12 12 12 12 12 12 12 13 13 13 13 14 14 14 14 14 14 14 14 13 12 12 11 11 10 9 8 7 6 6 6 6 7 7 7
14 14 13 13 13 13 13 13 13 13 13 13 14 14 14 15 15 15 16 16 15 15 15 15 15 16 16 15 14 14 13 13 13 12 10 10 9 8 8 8 8 8 8
17 16 15 14 14 14 14 14 14 14 15 15 15 16 16 16 16 17 18 18 17 17 17 17 18 17 18 17 17 16 15 15 14 14 13 12 12 11 11 10 10 10 10
20 17 16 16 16 16 15 16 16 16 17 17 17 17 17 17 18 19 19 20 20 19 19 19 20 20 20 20 19 18 17 16 16 16 16 15 15 14 13 13 12 12 11
21 19 18 18 18 18 18 18 18 18 18 19 19 19 19 20 20 21 21 22 22 22 21 21 22 22 22 21 21 20 19 18 17 17 18 17 16 16 16 15 15 14 13
23 21 20 20 20 20 20 20 20 20 20 21 21 21 22 22 23 23 23 23 24 23 24 23 22 22 23 23 23 22 22 21 20 18 18 19 19 19 18 17 17 16 15
24 25 24 23 21 22 22 22 23 24 24 24 24 25 25 25 25 25 26 25 25 25 24 25 25 24 24 24 24 24 24 24 23 21 21 20 20 21 21 21 20 19 18
26 26 26 25 24 25 25 25 25 26 27 27 28 28 29 28 28 27 26 26 25 26 25 26 26 26 26 26 25 24 25 25 25 23 23 22 22 23 23 23 23 22 21
26 27 27 26 27 27 27 26 27 28 29 30 30 30 30 29 28 29 29 28 27 26 26 26 27 28 29 29 28 26 26 26 26 25 24 23 23 23 24 24 25 24 23
26 26 27 27 29 29 29 28 28 29 31 32 32 31 30 29 29 31 30 29 27 27 27 27 28 29 29 29 29 28 28 26 26 26 25 24 24 24 24 24 25 25 25
26 27 28 29 29 30 31 32 32 32 32 33 34 34 33 33 33 32 31 30 29 28 27 27 29 29 28 29 30 30 29 28 27 27 26 25 25 24 24 24 25 26 26
26 27 29 30 31 32 33 35 35 35 35 36 36 35 35 36 36 35 34 32 32 30 29 29 29 29 30 30 30 29 28 28 28 28 28 27 26 25 25 25 26 26 26
27 28 30 31 32 34 35 36 36 37 37 38 38 38 38 38 37 36 35 34 33 32 31 29 29 29 30 30 31 29 28 29 29 28 28 29 28 27 26 25 25 26 26
26 28 30 32 33 34 35 36 37 37 38 38 38 39 39 38 38 37 36 35 34 33 31 30 29 28 29 29 30 30 30 30 29 29 28 29 29 28 28 27 25 26 26
26 28 30 32 34 36 37 37 37 38 39 39 39 40 40 39 38 38 37 36 34 33 31 30 30 29 29 29 30 30 30 30 30 29 28 28 29 29 29 28 26 26 26
28 30 32 34 35 36 37 37 38 38 39 39 39 40 40 40 39 38 37 36 35 34 32 31 31 30 29 31 31 31 31 30 31 31 30 29 30 30 30 29 28 27 26
29 31 32 34 35 35 36 37 37 38 39 39 40 40 40 39 39 38 37 36 35 34 33 32 32 30 31 32 32 32 31 30 31 32 32 32 32 31 30 29 29 28 27
29 30 31 33 34 34 35 36 37 38 39 39 39 39 39 39 39 38 38 37 36 35 34 33 33 32 31 31 32 32 32 32 31 32 32 33 33 32 32 30 30 28 27
28 29 30 31 32 33 34 34 35 36 37 38 38 38 38 39 39 39 39 38 37 36 35 35 34 33 33 32 32 32 33 32 31 33 33 33 34 34 33 32 30 29 28
Wind_Direction
333 333 335 337 338 340 339 341 344 348 353 356 357 357 357 356 355 356 357 358 359 1 2 4 8 12 17 23 29 37 46 52 61 73 80 84 90 98 106 110 114 116 117
327 327 326 326 327 328 330 331 332 337 340 343 347 347 348 346 344 344 344 345 346 348 350 350 352 355 1 7 15 25 36 46 56 67 81 88 92 98 107 112 113 115 120
327 326 321 318 319 321 322 324 324 325 327 330 334 335 335 334 332 333 334 334 334 336 338 336 337 339 342 348 356 5 15 29 43 59 76 91 99 102 106 112 115 117 122
326 323 318 316 315 315 316 315 313 313 313 315 319 321 321 321 319 320 323 324 323 323 324 323 323 324 327 329 332 338 344 353 13 41 70 98 107 110 111 116 121 123 126
323 320 316 314 311 309 308 308 306 304 303 304 307 310 311 310 311 311 311 313 313 311 311 311 311 311 312 313 314 315 316 318 321 333 357 132 135 131 128 127 130 132 134
316 313 310 308 308 305 303 303 299 297 296 297 299 301 301 301 302 303 303 304 304 303 303 301 301 301 301 300 300 300 299 296 297 291 275 231 189 169 157 147 143 142 143
313 308 304 302 302 301 297 296 295 294 293 293 293 294 294 295 296 299 298 297 297 295 296 295 293 293 292 291 290 289 287 284 283 279 269 249 228 205 188 174 163 156 152
310 307 301 300 299 298 296 295 294 293 292 292 290 288 289 291 292 293 294 293 292 291 291 289 286 285 285 284 283 281 279 275 273 271 264 252 238 225 211 196 182 171 163
304 302 300 297 296 294 293 292 291 291 291 290 290 288 287 288 290 290 289 288 286 286 286 285 282 281 280 279 278 276 273 271 268 267 262 254 243 231 222 212 200 188 179
297 295 295 295 295 292 291 291 290 289 291 290 289 288 287 287 289 289 287 285 284 283 281 280 279 279 276 275 274 272 269 266 264 263 260 254 247 238 230 222 214 203 193
296 291 293 295 291 289 288 289 289 290 291 291 290 289 288 289 288 288 288 285 284 283 278 277 277 277 274 271 271 270 267 263 261 259 256 252 248 241 235 229 221 213 205
289 287 288 289 286 284 285 286 287 288 288 287 287 286 286 286 288 287 288 286 283 280 276 275 275 273 270 268 266 266 264 262 261 256 253 251 248 242 238 233 227 222 215
288 286 284 281 281 278 277 280 282 284 286 285 284 286 286 286 286 285 285 287 284 280 277 272 273 269 266 264 263 262 261 260 260 256 252 249 246 242 239 234 229 226 222
288 287 283 278 277 279 278 279 282 284 286 284 285 286 286 285 284 284 284 285 285 281 279 275 272 267 264 262 260 260 258 257 256 255 250 247 244 241 239 235 231 229 226
288 286 282 284 282 280 280 280 279 281 284 284 285 286 285 285 283 285 283 284 284 281 280 277 271 267 263 259 258 259 258 254 253 252 246 244 244 242 238 233 233 231 229
288 288 288 288 287 286 281 275 277 281 284 286 288 288 284 285 283 288 285 283 282 279 277 277 272 270 264 259 257 255 254 253 250 249 244 242 241 240 239 237 234 231 229
288 289 290 290 290 291 291 289 286 287 288 287 288 289 287 287 288 290 287 284 282 279 277 276 272 269 265 259 257 255 252 252 249 246 243 240 240 241 239 238 233 232 230
289 290 290 290 290 291 292 292 293 289 290 289 289 289 290 291 293 293 292 287 284 280 279 277 274 267 263 260 258 257 252 249 248 245 240 237 238 238 238 237 233 231 230
292 292 291 291 291 291 290 291 291 290 289 288 288 288 287 289 290 291 291 289 288 285 282 278 274 267 260 259 257 256 251 249 247 243 239 236 236 236 236 235 233 230 230
292 292 291 290 289 289 288 288 288 288 288 287 286 285 286 287 287 287 287 287 285 284 280 275 270 265 259 258 255 252 249 248 245 242 240 235 233 233 233 232 234 230 229
292 291 291 291 290 289 288 287 286 287 287 286 286 285 285 285 285 284 284 284 283 281 277 272 268 264 259 256 252 248 245 245 244 243 240 234 231 231 231 231 230 227 227
294 293 292 292 291 289 288 287 286 286 285 285 285 284 284 283 283 282 281 280 279 278 274 269 266 262 257 252 249 247 243 244 243 242 238 233 230 229 229 230 229 227 227
297 295 294 293 291 290 288 287 286 285 285 284 284 283 283 282 281 280 279 277 276 275 273 268 264 260 253 250 248 245 241 241 241 238 236 232 229 229 228 228 227 226 226
299 297 296 294 293 291 290 288 287 286 286 285 284 282 281 280 279 278 277 275 274 273 272 269 263 258 254 252 248 246 242 239 240 238 235 231 229 228 227 225 224 226 224
304 302 299 297 295 293 291 289 288 287 286 285 283 282 280 278 277 276 275 273 272 271 270 267 262 257 252 250 247 244 242 240 239 237 231 229 227 226 224 223 223 224 222
308 305 302 300 298 297 295 293 291 289 288 286 284 282 280 278 276 275 273 271 269 268 267 265 263 256 252 249 245 243 241 238 236 232 229 227 226 224 222 221 222 222 222
Height
5920 5919 5918 5918 5917 5917 5916 5916 5915 5914 5913 5912 5912 5911 5910 5910 5909 5908 5907 5906 5905 5904 5903 5901 5900 5900 5899 5898 5898 5897 5897 5896 5896 5895 5895 5895 5895 5894 5894 5894 5895 5895 5895
5920 5919 5918 5918 5917 5917 5916 5915 5915 5914 5913 5912 5911 5910 5910 5909 5908 5907 5907 5906 5905 5904 5903 5902 5901 5900 5899 5899 5898 5898 5897 5897 5896 5896 5896 5896 5896 5895 5895 5895 5895 5896 5896
5919 5918 5917 5917 5916 5916 5915 5914 5914 5913 5912 5911 5910 5910 5909 5908 5907 5907 5906 5905 5904 5903 5902 5901 5900 5900 5899 5899 5898 5898 5897 5897 5897 5897 5896 5896 5896 5896 5896 5896 5896 5897 5897
5918 5917 5916 5916 5915 5915 5914 5913 5912 5911 5911 5910 5909 5908 5908 5907 5906 5906 5905 5904 5903 5902 5901 5901 5900 5899 5898 5898 5898 5898 5897 5897 5897 5897 5896 5896 5896 5896 5896 5897 5897 5897 5898
5916 5916 5915 5914 5914 5913 5912 5912 5911 5910 5909 5908 5908 5907 5906 5906 5905 5904 5904 5903 5902 5901 5900 5900 5899 5898 5897 5897 5897 5897 5897 5896 5896 5896 5896 5897 5897 5897 5897 5897 5898 5898 5899
5915 5914 5913 5913 5912 5911 5911 5910 5909 5908 5907 5907 5906 5905 5905 5904 5903 5902 5902 5901 5900 5900 5899 5898 5897 5896 5896 5896 5896 5896 5896 5896 5895 5896 5896 5896 5897 5897 5897 5898 5898 5898 5899
5913 5912 5911 5911 5910 5909 5908 5908 5907 5906 5905 5904 5904 5903 5902 5901 5901 5900 5899 5899 5898 5897 5897 5896 5895 5894 5894 5894 5894 5894 5894 5894 5894 5895 5895 5896 5896 5897 5897 5898 5898 5899 5899
5910 5910 5909 5908 5908 5907 5906 5905 5904 5903 5902 5901 5901 5900 5899 5899 5898 5897 5897 5896 5895 5894 5894 5893 5892 5892 5891 5891 5892 5892 5892 5893 5893 5893 5894 5895 5895 5896 5897 5897 5898 5898 5899
5907 5907 5906 5905 5905 5904 5903 5902 5901 5900 5899 5898 5897 5897 5896 5895 5895 5894 5893 5892 5892 5891 5890 5890 5889 5889 5888 5888 5888 5889 5889 5890 5891 5891 5892 5893 5893 5894 5895 5896 5897 5898 5899
5904 5903 5903 5902 5901 5901 5899 5898 5897 5896 5895 5894 5894 5893 5892 5891 5890 5890 5889 5888 5887 5887 5886 5886 5885 5885 5884 5884 5885 5885 5886 5887 5888 5888 5889 5890 5891 5892 5893 5895 5896 5897 5898
5901 5900 5899 5898 5897 5896 5895 5894 5893 5892 5891 5890 5889 5888 5888 5887 5886 5885 5884 5883 5883 5882 5882 5881 5881 5881 5880 5880 5880 5881 5882 5883 5884 5885 5886 5886 5888 5889 5891 5892 5894 5895 5896
5897 5896 5895 5894 5893 5892 5891 5889 5888 5887 5886 5885 5884 5883 5882 5881 5880 5879 5878 5878 5877 5876 5876 5876 5875 5875 5875 5876 5876 5876 5877 5878 5880 5881 5882 5883 5884 5886 5887 5889 5891 5893 5894
5892 5890 5888 5887 5887 5886 5885 5884 5883 5882 5881 5879 5878 5877 5876 5875 5874 5873 5872 5871 5870 5870 5869 5869 5869 5869 5870 5870 5870 5871 5872 5873 5875 5876 5877 5878 5880 5882 5884 5885 5887 5889 5892
5886 5885 5883 5880 5880 5879 5878 5877 5876 5876 5875 5873 5872 5871 5870 5868 5867 5865 5865 5864 5863 5862 5862 5862 5863 5863 5863 5864 5864 5865 5866 5867 5869 5871 5872 5873 5875 5876 5879 5881 5883 5886 5888
5881 5880 5878 5876 5875 5874 5873 5871 5870 5869 5869 5866 5865 5864 5863 5861 5860 5858 5858 5857 5855 5855 5855 5855 5856 5856 5857 5857 5858 5859 5860 5861 5863 5865 5866 5868 5869 5871 5874 5876 5879 5881 5884
5876 5875 5873 5871 5868 5866 5865 5862 5862 5862 5861 5859 5858 5856 5854 5853 5851 5851 5850 5849 5848 5847 5847 5847 5848 5848 5849 5850 5851 5852 5853 5854 5856 5858 5860 5862 5864 5865 5868 5871 5873 5876 5879
5870 5869 5867 5865 5862 5860 5857 5855 5854 5853 5853 5851 5850 5848 5846 5845 5844 5844 5842 5841 5839 5838 5839 5839 5839 5840 5841 5842 5843 5845 5846 5847 5849 5852 5854 5856 5858 5860 5862 5865 5868 5871 5874
5864 5863 5861 5859 5856 5854 5852 5849 5848 5845 5845 5844 5842 5840 5839 5838 5837 5836 5835 5833 5832 5831 5831 5831 5832 5832 5833 5834 5835 5837 5838 5840 5843 5845 5847 5850 5852 5855 5857 5860 5863 5866 5869
5858 5856 5854 5852 5850 5848 5846 5844 5842 5839 5838 5836 5834 5832 5831 5830 5830 5828 5827 5825 5824 5822 5823 5823 5824 5824 5825 5826 5828 5829 5831 5833 5836 5838 5841 5844 5846 5849 5851 5854 5857 5860 5863
5853 5851 5848 5846 5843 5841 5839 5837 5835 5833 5830 5828 5826 5824 5823 5822 5821 5820 5819 5817 5816 5815 5815 5815 5814 5816 5817 5818 5820 5821 5824 5826 5828 5831 5834 5837 5840 5843 5846 5849 5852 5854 5858
5848 5845 5842 5839 5836 5834 5832 5829 5826 5824 5822 5819 5817 5814 5813 5813 5812 5811 5810 5809 5808 5808 5807 5807 5807 5807 5808 5810 5812 5814 5816 5819 5822 5824 5827 5830 5833 5836 5840 5843 5846 5849 5852
5842 5839 5836 5833 5829 5826 5823 5820 5817 5815 5812 5810 5808 5805 5803 5803 5802 5801 5800 5800 5799 5799 5799 5798 5798 5799 5800 5802 5804 5805 5808 5812 5814 5816 5819 5822 5826 5830 5834 5837 5840 5843 5847
5835 5832 5828 5824 5821 5817 5813 5810 5808 5805 5802 5800 5798 5796 5794 5793 5792 5791 5790 5790 5790 5790 5790 5790 5790 5790 5791 5793 5795 5797 5799 5803 5806 5809 5812 5815 5819 5823 5827 5830 5834 5837 5841
5828 5824 5819 5815 5812 5808 5804 5801 5798 5795 5792 5789 5787 5785 5783 5782 5781 5780 5780 5779 5779 5780 5780 5780 5780 5781 5783 5784 5786 5788 5791 5794 5797 5801 5805 5808 5812 5816 5820 5824 5828 5831 5835
5819 5815 5811 5807 5803 5799 5795 5791 5788 5784 5782 5779 5777 5775 5773 5771 5770 5769 5769 5769 5769 5769 5769 5770 5771 5772 5774 5775 5777 5779 5782 5785 5788 5792 5796 5800 5805 5809 5813 5817 5821 5826 5829
5811 5807 5803 5798 5793 5789 5785 5781 5778 5774 5771 5768 5766 5764 5762 5760 5759 5758 5758 5758 5758 5758 5759 5760 5760 5762 5763 5765 5767 5770 5772 5776 5780 5784 5788 5792 5797 5802 5806 5811 5815 5820 5824